Date String (YYYY-MM-DD hh:mm:ss) UTC,Instrument flags,absolute air pressure of the measurement (hPa),sample flow rate (lpm),inlet stack bypass flow (lpm),air temperature of the measurement (°C),ambient temperature measured by the external sensor (°C),aerosol sample conditioner tube jacket temperature (°C),OPC LED temperature (°C),internal box temperature (°C),relative humidity of the measurement (%),span deviation,mass concentration of particles derived from Lorenz-Mie calculation of OPC scattering (μg/m³),mass concentration of particles derived from Lorenz-Mie calculation of OPC scattering (μg/m³),mass concentration of particles derived from Lorenz-Mie calculation of OPC scattering (μg/m³)
DateTimeUTC,F1_M11,P_M11,Q1_M11,Q2_M11,T1_M11,T2_M11,T3_M11,T4_M11,T5_M11,U1_M11,ZSPAN_M11,X0_M11,X2_M11,X1_M11
2023-11-28 22:00:00,SystemResetWarning,0832.6,5.01,000.00,026.7,025.8,000.0,034.8,028.1,9.0,0000.0,0009.82,0004.80,0004.32
2023-11-28 22:01:00,SystemResetWarning,0832.7,5.01,000.00,026.7,025.9,000.0,034.8,028.1,9.2,0000.0,0009.85,0004.78,0004.31
2023-11-28 22:02:00,SystemResetWarning,0832.7,5.00,000.00,026.7,025.9,000.0,034.8,028.2,8.9,0000.0,0009.69,0004.75,0004.30
2023-11-28 22:03:00,SystemResetWarning,0832.7,4.99,000.00,026.8,025.9,000.0,034.9,028.2,8.7,0000.0,0009.61,0004.75,0004.29
2023-11-28 22:04:00,SystemResetWarning,0832.7,4.99,000.00,026.8,025.9,000.0,034.9,028.2,8.7,0000.0,0009.43,0004.72,0004.29
2023-11-28 22:05:00,SystemResetWarning,0832.7,5.00,000.00,026.8,025.9,000.0,034.9,028.2,8.9,0000.0,0009.41,0004.75,0004.31
2023-11-28 22:06:00,SystemResetWarning,0832.7,5.00,000.00,026.8,025.9,000.0,034.9,028.2,8.9,0000.0,0009.47,0004.79,0004.32
2023-11-28 22:07:00,SystemResetWarning,0832.7,4.99,000.00,026.8,025.9,000.0,034.9,028.2,8.8,0000.0,0009.09,0004.80,0004.33
2023-11-28 22:08:00,SystemResetWarning,0832.7,5.00,000.00,026.8,025.9,000.0,034.9,028.2,8.9,0000.0,0008.86,0004.82,0004.34
2023-11-28 22:09:00,SystemResetWarning,0832.7,5.01,000.00,026.8,025.9,000.0,034.9,028.3,8.8,0000.0,0008.84,0004.86,0004.35
2023-11-28 22:10:00,SystemResetWarning,0832.7,5.00,000.00,026.9,026.0,000.0,035.0,028.3,8.9,0000.0,0008.71,0004.87,0004.37
2023-11-28 22:11:00,SystemResetWarning,0832.7,5.00,000.00,026.9,026.0,000.0,035.0,028.3,8.8,0000.0,0008.64,0004.88,0004.39
2023-11-28 22:12:00,SystemResetWarning,0832.7,5.00,000.00,026.9,026.0,000.0,035.0,028.3,9.1,0000.0,0008.66,0004.92,0004.41
2023-11-28 22:13:00,SystemResetWarning,0832.7,5.00,000.00,026.9,026.0,000.0,035.0,028.3,9.0,0000.0,0008.80,0004.97,0004.43
2023-11-28 22:14:00,SystemResetWarning,0832.7,5.00,000.00,026.9,026.0,000.0,035.0,028.3,8.9,0000.0,0008.98,0005.00,0004.45
2023-11-28 22:15:00,SystemResetWarning,0832.7,5.00,000.00,026.9,026.0,000.0,035.0,028.3,8.9,0000.0,0009.25,0005.03,0004.47
2023-11-28 22:16:00,SystemResetWarning,0832.7,5.00,000.00,026.9,026.0,000.0,035.0,028.3,9.1,0000.0,0009.22,0005.03,0004.48
2023-11-28 22:17:00,SystemResetWarning,0832.7,5.00,000.00,026.9,026.0,000.0,035.1,028.3,9.3,0000.0,0009.24,0005.04,0004.49
2023-11-28 22:18:00,SystemResetWarning,0832.7,5.00,000.00,027.0,026.0,000.0,035.1,028.4,9.2,0000.0,0009.81,0005.10,0004.50
2023-11-28 22:19:00,SystemResetWarning,0832.7,5.00,000.00,027.0,026.1,000.0,035.1,028.4,9.3,0000.0,0010.28,0005.13,0004.52
2023-11-28 22:20:00,SystemResetWarning,0832.7,5.00,000.00,027.0,026.1,000.0,035.1,028.3,9.2,0000.0,0010.24,0005.12,0004.55
2023-11-28 22:21:00,SystemResetWarning,0832.7,5.00,000.00,027.0,026.1,000.0,035.1,028.4,9.0,0000.0,0010.20,0005.12,0004.55
2023-11-28 22:22:00,SystemResetWarning,0832.7,5.00,000.00,027.0,026.1,000.0,035.1,028.4,9.1,0000.0,0010.55,0005.20,0004.57
2023-11-28 22:23:00,SystemResetWarning,0832.7,4.99,000.00,027.0,026.1,000.0,035.1,028.4,9.4,0000.0,0010.87,0005.21,0004.58
2023-11-28 22:24:00,SystemResetWarning,0832.7,5.00,000.00,027.0,026.1,000.0,035.1,028.4,9.4,0000.0,0010.92,0005.22,0004.59
2023-11-28 22:25:00,SystemResetWarning,0832.7,5.00,000.00,027.0,026.1,000.0,035.2,028.4,9.6,0000.0,0010.80,0005.22,0004.61
2023-11-28 22:26:00,SystemResetWarning,0832.8,5.00,000.00,027.0,026.1,000.0,035.2,028.4,9.5,0000.0,0010.63,0005.22,0004.61
2023-11-28 22:27:00,SystemResetWarning,0832.8,5.01,000.00,027.1,026.1,000.0,035.2,028.4,9.3,0000.0,0010.72,0005.25,0004.63
2023-11-28 22:28:00,SystemResetWarning,0832.8,5.00,000.00,027.1,026.1,000.0,035.2,028.4,9.2,0000.0,0010.99,0005.27,0004.65
2023-11-28 22:29:00,SystemResetWarning,0832.8,5.00,000.00,027.1,026.1,000.0,035.2,028.5,9.2,0000.0,0010.95,0005.24,0004.65
2023-11-28 22:30:00,SystemResetWarning,0832.8,5.00,000.00,027.1,026.1,000.0,035.2,028.5,9.4,0000.0,0010.79,0005.25,0004.65
2023-11-28 22:31:00,SystemResetWarning,0832.8,5.00,000.00,027.1,026.2,000.0,035.2,028.5,9.1,0000.0,0010.80,0005.27,0004.64
2023-11-28 22:32:00,SystemResetWarning,0832.7,5.00,000.00,027.1,026.2,000.0,035.2,028.5,9.0,0000.0,0010.87,0005.28,0004.64
2023-11-28 22:33:00,SystemResetWarning,0832.8,5.00,000.00,027.1,026.2,000.0,035.3,028.5,8.9,0000.0,0010.57,0005.22,0004.63
2023-11-28 22:34:00,SystemResetWarning,0832.7,5.01,000.00,027.1,026.2,000.0,035.3,028.5,8.8,0000.0,0010.37,0005.20,0004.63
2023-11-28 22:35:00,SystemResetWarning,0832.7,4.99,000.00,027.1,026.2,000.0,035.3,028.5,9.0,0000.0,0010.39,0005.21,0004.64
2023-11-28 22:36:00,SystemResetWarning,0833.0,5.00,000.00,027.1,026.2,000.0,035.3,028.5,9.0,0000.0,0010.65,0005.25,0004.65
2023-11-28 22:37:00,SystemResetWarning,0833.1,4.99,000.00,027.2,026.2,000.0,035.3,028.5,9.1,0000.0,0010.88,0005.25,0004.64
2023-11-28 22:38:00,SystemResetWarning,0832.7,5.00,000.00,027.2,026.2,000.0,035.3,028.5,9.0,0000.0,0011.05,0005.24,0004.65
2023-11-28 22:39:00,SystemResetWarning,0832.7,5.00,000.00,027.2,026.2,000.0,035.3,028.6,9.1,0000.0,0011.15,0005.29,0004.67
2023-11-28 22:40:00,SystemResetWarning,0832.7,5.01,000.00,027.2,026.2,000.0,035.3,028.6,8.8,0000.0,0011.50,0005.31,0004.69
2023-11-28 22:41:00,SystemResetWarning,0832.7,5.00,000.00,027.2,026.2,000.0,035.3,028.5,8.9,0000.0,0011.44,0005.31,0004.71
2023-11-28 22:42:00,SystemResetWarning,0832.7,5.00,000.00,027.2,026.2,000.0,035.4,028.5,8.9,0000.0,0012.14,0005.33,0004.73
2023-11-28 22:43:00,SystemResetWarning,0832.7,5.00,000.00,027.2,026.2,000.0,035.4,028.6,8.9,0000.0,0012.15,0005.35,0004.76
2023-11-28 22:44:00,SystemResetWarning,0832.7,5.00,000.00,027.2,026.3,000.0,035.4,028.6,9.0,0000.0,0012.14,0005.35,0004.79
2023-11-28 22:45:00,SystemResetWarning,0832.7,5.00,000.00,027.2,026.3,000.0,035.4,028.6,9.0,0000.0,0012.73,0005.38,0004.81
2023-11-28 22:46:00,SystemResetWarning,0832.7,4.99,000.00,027.2,026.3,000.0,035.4,028.6,8.9,0000.0,0013.03,0005.42,0004.83
2023-11-28 22:47:00,SystemResetWarning,0832.9,4.99,000.00,027.3,025.9,000.0,035.4,028.7,8.9,0000.0,0013.06,0005.44,0004.86
2023-11-28 22:48:00,SystemResetWarning,0832.7,5.00,000.00,027.2,024.5,000.0,035.4,028.5,8.9,0000.0,0012.98,0005.48,0004.90
2023-11-28 22:49:00,SystemResetWarning,0832.7,5.00,000.00,027.0,022.7,000.0,035.3,027.9,9.0,0000.0,0012.95,0005.53,0004.92
2023-11-28 22:50:00,SystemResetWarning,0832.7,5.00,000.00,026.8,022.2,000.0,035.2,027.5,9.0,0000.0,0012.86,0005.58,0004.94
2023-11-28 22:51:00,SystemResetWarning,0832.7,5.01,000.00,026.6,022.6,000.0,035.1,027.0,9.0,0000.0,0012.38,0005.57,0004.95
2023-11-28 22:52:00,SystemResetWarning,0832.7,5.00,000.00,026.5,023.0,000.0,035.1,027.1,9.3,0000.0,0012.28,0005.60,0004.98
2023-11-28 22:53:00,SystemResetWarning,0832.7,4.99,000.00,026.4,023.5,000.0,035.0,027.3,9.2,0000.0,0011.63,0005.62,0004.99
2023-11-28 22:54:00,SystemResetWarning,0832.7,5.00,000.00,026.4,023.8,000.0,034.9,027.4,9.2,0000.0,0011.36,0005.61,0005.01
2023-11-28 22:55:00,SystemResetWarning,0832.7,5.00,000.00,026.4,024.2,000.0,034.9,027.4,9.5,0000.0,0011.65,0005.67,0005.03
2023-11-28 22:56:00,SystemResetWarning,0832.7,5.00,000.00,026.4,024.4,000.0,034.9,027.5,9.5,0000.0,0011.41,0005.69,0005.04
2023-11-28 22:57:00,SystemResetWarning,0832.7,5.00,000.00,026.4,024.6,000.0,034.8,027.6,9.4,0000.0,0010.79,0005.72,0005.07
2023-11-28 22:58:00,SystemResetWarning,0832.7,5.00,000.00,026.4,024.8,000.0,034.8,027.6,9.4,0000.0,0010.72,0005.71,0005.10
2023-11-28 22:59:00,SystemResetWarning,0832.7,5.00,000.00,026.4,024.9,000.0,034.8,027.6,9.2,0000.0,0010.47,0005.73,0005.13
